Powered by GoogleTranslate

Occupational Safety and Health Administration OSHA

Alert: Due to routine maintenance on the OSHA website, some pages may be temporarily unavailable.
To report an emergency, file a complaint with OSHA or ask a safety and health question, call 1-800-321-6742 (OSHA).

Accident Search Results

Description, Abstract, KeywordSICNAICSDate RangeOfficeInsp Nr
Keyword: "Hand"AllAllAllAllAll

By Date

Results 321 - 340 of 9192
Result Page: ... 12 13 14 15 16 17 18 19 20 21 ...
  # Summary Nr Event Date Report ID Fat SIC Event Description
321 014243331 06/23/1988 0317000 X 1731,1721,1542 Electric Shock - Contact With Energized Conductor Thru Tool
322 014348718 06/24/1988 0418300 X 1731 Electric Shock - Contact With Conductor Thru Hand Tool
323 014496970 07/01/1988 0627100 X 1711 Electric Shock - Contact With Conductor Thru Pliers
324 000978502 07/01/1988 0454712   3433 Employee'S Hand Amputated In Press Brake
325 000674960 07/01/1988 0454510   3354 Employee'S Hand Injured In Power Press
326 000893149 07/07/1988 0355114 X 1731 Electric Shock - Contact With Energized Part
327 000601518 07/13/1988 0420600   4212 Employee'S Arm Caught In Mobile Refuse Compaction Equipment
328 000810218 07/17/1988 0453710   2813 Employee'S Hand Severed By Bandsaw Blade
329 000995027 07/28/1988 0452110   3585 Employee'S Hand Caught In Press Brake
330 000764530 08/02/1988 0931200 X 4212 Employee Crushed To Death Between Two Trucks
331 000823005 08/06/1988 0352440   1791 Employee'S Hand Cut As He Falls With Metal Sheet
332 000672899 08/15/1988 0751910   3523,7349 Employees Burned By Flash Fire In Paint Booth Pit
333 014215784 08/16/1988 0454510   1541 Employees Hospitalized After Cyclohexylamine Spill
334 014391619 08/22/1988 0625700 X 1731 Electric Shock - Contact With Energized Parts
335 000777888 08/26/1988 0854910   2099 Employee'S Finger Amputated In Cutter
336 000694703 09/05/1988 0355118   5411 Employee'S Hand Amputated In Meat Grinder
337 014499263 09/09/1988 0523300 X 3714 Electric Shock - Contact With Live Part Thru Hand Tool
338 000777904 09/09/1988 0854910   5093 Employee Injured Jumping From Out-Of-Control Forklift
339 014292171 09/11/1988 0355119   3011 Employee'S Hand Caught In Cotton Fabric Windup Roll
340 014348056 09/17/1988 0418600 X 1731 Electric Shock - Contact With Live Part Thru Hand Tool

Thank You for Visiting Our Website

You are exiting the Department of Labor's Web server.

The Department of Labor does not endorse, takes no responsibility for, and exercises no control over the linked organization or its views, or contents, nor does it vouch for the accuracy or accessibility of the information contained on the destination server. The Department of Labor also cannot authorize the use of copyrighted materials contained in linked Web sites. Users must request such authorization from the sponsor of the linked Web site. Thank you for visiting our site. Please click the button below to continue.

Close